CW5689 Weather Reports


Display with metric or nautical units.
time (UTC)temp
F
wind
direction
speed
MPH
gust
MPH
rain 1hr
in
rain 24hr
in
rain mn
in
humidity
%
barometer
mb
20260510093032 37 288 2.0 4.0 0.00 0.02 0.00 79 1016.5
20260510092518 36 301 1.0 3.0 0.00 0.02 0.00 78 1016.6
20260510092018 36 0 0.0 3.0 0.00 0.02 0.00 79 1016.6
20260510091539 36 0 0.0 3.0 0.00 0.02 0.00 79 1016.6
20260510091017 36 301 1.0 4.0 0.00 0.02 0.00 78 1016.5
20260510090517 36 301 2.0 4.0 0.00 0.02 0.00 78 1016.4
20260510090036 36 303 0.0 0.0 0.00 0.02 0.00 77 1016.3
20260510085516 36 0 0.0 0.0 0.00 0.02 0.00 77 1016.2
20260510085017 36 0 0.0 0.0 0.00 0.02 0.00 76 1016.2
20260510084545 36 0 0.0 0.0 0.00 0.02 0.00 76 1016.1
20260510084017 37 0 0.0 0.0 0.00 0.02 0.00 75 1016.1
20260510083517 37 0 0.0 0.0 0.00 0.02 0.00 75 1016.1
20260510083038 37 0 0.0 0.0 0.00 0.02 0.00 74 1016.0
20260510082517 37 0 0.0 0.0 0.00 0.02 0.00 74 1016.0
20260510082017 37 0 0.0 0.0 0.00 0.02 0.00 74 1016.0
20260510081537 37 0 0.0 0.0 0.00 0.02 0.00 73 1015.9
20260510081018 37 0 0.0 0.0 0.00 0.02 0.00 73 1015.9
20260510080519 38 0 0.0 0.0 0.00 0.02 0.00 72 1015.9
20260510080037 38 0 0.0 0.0 0.00 0.02 0.00 72 1015.8
20260510075603 38 0 0.0 3.0 0.00 0.02 0.00 72 1015.7
20260510075518 38 0 0.0 3.0 0.00 0.02 0.00 72 1015.7
20260510075019 38 0 0.0 3.0 0.00 0.02 0.00 71 1015.7
20260510074537 38 303 1.0 3.0 0.00 0.02 0.00 71 1015.7
20260510074017 39 0 1.0 3.0 0.00 0.02 0.00 70 1015.6
20260510073517 39 303 1.0 3.0 0.00 0.02 0.00 70 1015.7
20260510073046 39 303 0.0 3.0 0.00 0.02 0.00 70 1015.5
20260510072517 39 0 0.0 0.0 0.00 0.02 0.00 69 1015.6
20260510072016 39 0 0.0 0.0 0.00 0.02 0.00 69 1015.6
20260510071534 40 0 0.0 0.0 0.00 0.02 0.00 68 1015.6
20260510071016 40 0 0.0 0.0 0.00 0.02 0.00 67 1015.5
20260510070516 40 0 0.0 0.0 0.00 0.02 0.00 67 1015.7
20260510070039 41 0 0.0 0.0 0.00 0.02 0.00 65 1015.6
20260510065518 41 0 0.0 0.0 0.00 0.02 0.00 65 1015.5
20260510065021 41 0 0.0 0.0 0.00 0.02 0.00 65 1015.5
20260510064538 42 0 0.0 0.0 0.00 0.02 0.00 63 1015.5
20260510064017 42 0 0.0 0.0 0.00 0.02 0.00 62 1015.5
20260510063519 42 0 0.0 0.0 0.00 0.02 0.00 64 1015.5
20260510063035 42 0 0.0 0.0 0.00 0.02 0.00 63 1015.5
20260510062517 43 0 0.0 0.0 0.00 0.02 0.00 62 1015.5
20260510062017 43 0 0.0 0.0 0.00 0.02 0.00 60 1015.4
20260510061536 43 0 0.0 0.0 0.00 0.02 0.00 59 1015.4
20260510061017 44 0 0.0 0.0 0.00 0.02 0.00 58 1015.3
20260510060519 44 0 0.0 0.0 0.00 0.02 0.00 58 1015.4
20260510060041 44 0 0.0 0.0 0.00 0.02 0.00 57 1015.3
20260510055519 44 0 0.0 0.0 0.00 0.02 0.00 56 1015.3
20260510055018 45 0 0.0 0.0 0.00 0.02 0.00 56 1015.3
20260510054534 45 0 0.0 0.0 0.00 0.02 0.00 55 1015.3
20260510054018 45 0 0.0 0.0 0.00 0.02 0.00 54 1015.2
20260510053517 46 0 0.0 0.0 0.00 0.02 0.00 54 1015.1
20260510053032 46 0 0.0 0.0 0.00 0.02 0.00 53 1015.1
20260510052518 46 0 0.0 0.0 0.00 0.02 0.00 53 1015.0
20260510052019 47 0 0.0 0.0 0.00 0.02 0.00 52 1015.0
20260510051532 47 0 0.0 0.0 0.00 0.02 0.00 50 1014.9
20260510051018 47 0 0.0 0.0 0.00 0.02 0.00 48 1014.9
20260510050519 48 0 0.0 0.0 0.00 0.02 0.00 48 1014.9
20260510050035 48 0 0.0 0.0 0.00 0.02 0.00 49 1014.9
20260510045518 48 0 0.0 0.0 0.00 0.02 0.02 48 1014.9
20260510045018 49 0 0.0 2.0 0.00 0.02 0.02 47 1014.8
20260510044536 49 0 0.0 4.0 0.00 0.02 0.02 47 1014.7
20260510044017 49 0 1.0 5.0 0.00 0.02 0.02 46 1014.8
20260510043520 49 301 2.0 7.0 0.00 0.02 0.02 46 1014.8
20260510043034 49 302 2.0 7.0 0.00 0.02 0.02 46 1014.7
20260510042516 49 307 1.0 6.0 0.00 0.02 0.02 45 1014.7
20260510042016 49 306 2.0 7.0 0.00 0.02 0.02 45 1014.7
20260510041536 49 294 2.0 7.0 0.00 0.02 0.02 45 1014.6
20260510041020 50 294 1.0 7.0 0.00 0.02 0.02 44 1014.6
20260510040519 50 0 0.0 5.0 0.00 0.02 0.02 43 1014.6
20260510040032 50 309 0.0 5.0 0.00 0.02 0.02 44 1014.6
20260510035517 50 314 1.0 5.0 0.00 0.02 0.02 44 1014.5
20260510035018 50 304 1.0 5.0 0.00 0.02 0.02 43 1014.4
20260510034535 50 0 0.0 7.0 0.00 0.02 0.02 43 1014.3
20260510034019 50 0 2.0 9.0 0.00 0.02 0.02 43 1014.3
20260510033521 50 288 1.0 9.0 0.00 0.02 0.02 43 1014.2
20260510033037 50 278 4.0 9.0 0.00 0.02 0.02 43 1014.1
20260510032520 50 303 1.0 9.0 0.00 0.02 0.02 43 1014.1
20260510032017 50 296 2.0 9.0 0.00 0.02 0.02 43 1014.0
20260510031537 50 313 2.0 4.0 0.00 0.02 0.02 43 1013.9
20260510031017 50 0 0.0 4.0 0.00 0.02 0.02 43 1013.9
20260510030516 50 0 2.0 6.0 0.00 0.02 0.02 42 1013.7
20260510030036 51 315 2.0 7.0 0.00 0.02 0.02 43 1013.6
20260510025518 51 297 2.0 7.0 0.00 0.02 0.02 43 1013.6
20260510025017 51 315 1.0 5.0 0.00 0.02 0.02 43 1013.4
20260510024536 51 309 2.0 5.0 0.00 0.02 0.02 43 1013.3
20260510024018 52 0 1.0 5.0 0.00 0.02 0.02 43 1013.2
20260510023517 52 311 2.0 5.0 0.00 0.02 0.02 42 1013.1
20260510023041 52 332 2.0 4.0 0.00 0.02 0.02 41 1013.0
20260510022517 52 339 1.0 3.0 0.00 0.02 0.02 40 1013.0
20260510022020 53 339 1.0 3.0 0.00 0.02 0.02 40 1012.9
20260510021537 53 339 0.0 3.0 0.00 0.02 0.02 39 1012.8
20260510021017 53 340 1.0 3.0 0.00 0.02 0.02 38 1012.7
20260510020517 53 0 0.0 3.0 0.00 0.02 0.02 38 1012.6
20260510020034 54 340 1.0 3.0 0.00 0.02 0.02 38 1012.4
20260510015520 54 0 0.0 3.0 0.00 0.02 0.02 37 1012.3
20260510015016 54 341 0.0 3.0 0.00 0.02 0.02 37 1012.2
20260510014533 55 342 1.0 3.0 0.00 0.02 0.02 36 1012.2
20260510014017 55 0 0.0 5.0 0.00 0.02 0.02 35 1012.1
20260510013517 55 0 0.0 5.0 0.00 0.02 0.02 35 1012.0
20260510013032 55 297 0.0 4.0 0.00 0.02 0.02 34 1011.9
20260510012518 56 0 0.0 5.0 0.00 0.02 0.02 34 1011.8
20260510012018 56 302 1.0 6.0 0.00 0.02 0.02 34 1011.7
20260510011537 56 299 1.0 9.0 0.00 0.02 0.02 32 1011.6
20260510011017 56 310 2.0 9.0 0.00 0.02 0.02 32 1011.5
20260510010518 57 288 2.0 12.0 0.00 0.02 0.02 32 1011.4
20260510010034 57 326 4.0 12.0 0.00 0.02 0.02 31 1011.4
20260510005518 57 330 3.0 12.0 0.00 0.02 0.02 32 1011.3
20260510005020 57 9 6.0 12.0 0.00 0.02 0.02 30 1011.2
20260510004535 58 327 2.0 11.0 0.00 0.02 0.02 30 1011.2
20260510004017 58 326 2.0 13.0 0.00 0.02 0.02 31 1011.2
20260510003517 58 1 3.0 13.0 0.00 0.02 0.02 31 1011.1
20260510003032 58 321 4.0 9.0 0.00 0.02 0.02 32 1011.1
20260510002516 58 303 2.0 11.0 0.00 0.02 0.02 32 1011.1
20260510002019 58 355 3.0 11.0 0.00 0.02 0.02 31 1011.0
20260510001538 58 269 4.0 11.0 0.00 0.02 0.02 31 1011.0
20260510001017 58 272 2.0 12.0 0.00 0.02 0.02 32 1010.9
20260510000519 58 3 5.0 12.0 0.00 0.02 0.02 30 1010.9
20260510000035 58 315 3.0 11.0 0.00 0.02 0.02 33 1010.8
20260509235516 58 6 4.0 12.0 0.00 0.02 0.02 31 1010.9
20260509235016 58 286 4.0 12.0 0.00 0.02 0.02 32 1010.8
20260509234538 59 340 4.0 12.0 0.00 0.02 0.02 34 1010.8
20260509234020 59 326 4.0 11.0 0.00 0.02 0.02 30 1010.7
20260509233517 59 244 4.0 12.0 0.00 0.02 0.02 31 1010.7
20260509233036 59 305 4.0 12.0 0.00 0.02 0.02 30 1010.6
20260509232518 60 15 4.0 20.0 0.00 0.02 0.02 29 1010.6
20260509232018 60 342 6.0 20.0 0.00 0.02 0.02 31 1010.4
20260509231534 60 313 7.0 20.0 0.00 0.02 0.02 30 1010.4
20260509231016 60 286 5.0 15.0 0.00 0.02 0.02 30 1010.1
20260509230517 60 335 5.0 15.0 0.00 0.02 0.02 31 1010.2
20260509230035 60 316 6.0 15.0 0.00 0.02 0.02 29 1010.1
20260509225517 60 284 7.0 16.0 0.00 0.02 0.02 30 1010.2
20260509225016 61 308 6.0 16.0 0.00 0.02 0.02 30 1010.1
20260509224531 61 16 6.0 14.0 0.00 0.02 0.02 31 1010.0
20260509224016 60 36 2.0 14.0 0.00 0.02 0.02 33 1010.0
20260509223519 60 36 3.0 16.0 0.00 0.02 0.02 30 1009.9
20260509223039 61 350 7.0 16.0 0.00 0.02 0.02 29 1009.8
20260509222516 61 314 5.0 13.0 0.00 0.02 0.02 30 1009.9
20260509222016 61 278 7.0 17.0 0.00 0.02 0.02 29 1009.8
20260509221536 61 305 9.0 17.0 0.00 0.02 0.02 29 1009.8
20260509221017 61 255 7.0 17.0 0.00 0.02 0.02 30 1009.7
20260509220517 61 350 5.0 15.0 0.00 0.02 0.02 31 1009.6
20260509220038 61 326 6.0 19.0 0.00 0.02 0.02 30 1009.7
20260509215520 61 281 7.0 19.0 0.00 0.02 0.02 28 1009.5
20260509215017 61 315 6.0 17.0 0.00 0.02 0.02 29 1009.6
20260509214539 61 302 6.0 16.0 0.00 0.02 0.02 29 1009.5
20260509214024 61 355 8.0 15.0 0.00 0.02 0.02 30 1009.5
20260509213518 61 284 4.0 16.0 0.00 0.02 0.02 32 1009.4
20260509213033 61 350 7.0 16.0 0.00 0.02 0.02 29 1009.4
20260509212516 61 360 8.0 16.0 0.00 0.02 0.02 28 1009.3
20260509212016 61 267 4.0 16.0 0.00 0.02 0.02 32 1009.3
20260509211537 61 314 6.0 21.0 0.00 0.02 0.02 28 1009.3
20260509211016 61 355 10.0 21.0 0.01 0.02 0.02 29 1009.3
20260509210516 60 263 7.0 21.0 0.01 0.02 0.02 32 1009.1
20260509210039 60 338 4.0 20.0 0.01 0.02 0.02 33 1009.1
20260509205516 60 296 10.0 20.0 0.01 0.02 0.02 30 1009.1
20260509205019 60 26 6.0 19.0 0.01 0.02 0.02 34 1009.1
20260509204534 60 57 9.0 19.0 0.01 0.02 0.02 32 1009.1
20260509204018 60 254 7.0 19.0 0.01 0.02 0.02 33 1009.1
20260509203517 60 342 7.0 19.0 0.01 0.02 0.02 33 1008.9
20260509203035 60 9 7.0 16.0 0.01 0.02 0.02 35 1009.0
20260509202517 60 2 5.0 14.0 0.01 0.02 0.02 38 1008.8
20260509202021 60 342 5.0 18.0 0.01 0.02 0.02 36 1008.7
20260509201534 60 226 4.0 18.0 0.01 0.02 0.02 37 1008.6
20260509201016 61 342 6.0 21.0 0.00 0.01 0.01 38 1008.9
20260509200516 61 311 7.0 21.0 0.00 0.01 0.01 29 1008.7
20260509200038 61 269 4.0 16.0 0.00 0.01 0.01 36 1008.7
20260509195522 61 323 8.0 16.0 0.00 0.01 0.01 30 1008.8
20260509195015 61 301 4.0 19.0 0.00 0.01 0.01 29 1008.6
20260509194538 61 280 6.0 19.0 0.00 0.01 0.01 33 1008.7
20260509194018 61 350 9.0 19.0 0.00 0.01 0.01 30 1008.6
20260509193521 61 284 4.0 17.0 0.00 0.01 0.01 36 1008.6
20260509193037 61 39 7.0 22.0 0.00 0.01 0.01 36 1008.5
20260509192518 61 294 8.0 22.0 0.00 0.01 0.01 34 1008.7
20260509192020 61 305 6.0 20.0 0.00 0.01 0.01 36 1008.6
20260509191537 61 3 7.0 20.0 0.00 0.01 0.01 34 1008.5
20260509191019 61 292 8.0 20.0 0.00 0.01 0.01 33 1008.4
20260509190515 61 16 5.0 18.0 0.00 0.01 0.01 38 1008.3
20260509190033 61 26 4.0 18.0 0.00 0.01 0.01 39 1008.3
20260509185516 61 31 9.0 18.0 0.00 0.01 0.01 36 1008.2
20260509185016 61 326 6.0 20.0 0.00 0.01 0.01 37 1008.2
20260509184539 61 278 6.0 20.0 0.00 0.01 0.01 35 1008.2
20260509184018 61 288 5.0 20.0 0.00 0.01 0.01 35 1008.1
20260509183519 61 37 4.0 17.0 0.00 0.01 0.01 35 1008.0
20260509183032 61 282 6.0 16.0 0.00 0.01 0.01 38 1008.2
20260509182515 61 320 7.0 16.0 0.00 0.01 0.01 35 1008.1
20260509182015 61 355 5.0 16.0 0.00 0.01 0.01 36 1007.9
20260509181543 61 294 8.0 21.0 0.00 0.01 0.01 38 1008.0
20260509181020 60 332 5.0 21.0 0.00 0.01 0.01 38 1007.8
20260509180520 60 323 6.0 17.0 0.00 0.01 0.01 35 1007.9
20260509180032 60 288 6.0 17.0 0.00 0.01 0.01 41 1008.0
20260509175518 60 342 4.0 16.0 0.00 0.01 0.01 44 1008.0
20260509175019 60 24 5.0 16.0 0.00 0.01 0.01 39 1007.9
20260509174536 60 307 4.0 20.0 0.00 0.01 0.01 39 1007.9
20260509174015 60 297 10.0 20.0 0.00 0.01 0.01 35 1007.9
20260509173516 60 298 9.0 20.0 0.00 0.01 0.01 36 1007.9
20260509173032 60 279 9.0 20.0 0.00 0.01 0.01 35 1008.0
20260509172516 60 7 7.0 16.0 0.00 0.01 0.01 40 1007.8
20260509172019 60 312 6.0 15.0 0.00 0.01 0.01 38 1007.9
20260509171533 60 274 6.0 15.0 0.00 0.01 0.01 39 1007.6
20260509171015 60 14 6.0 16.0 0.00 0.01 0.01 41 1007.7
20260509170518 59 14 6.0 22.0 0.00 0.01 0.01 42 1007.5
20260509170034 59 259 6.0 22.0 0.00 0.01 0.01 44 1007.4
20260509165516 59 50 7.0 17.0 0.00 0.01 0.01 45 1007.4
20260509165018 58 32 6.0 17.0 0.00 0.01 0.01 41 1007.3
20260509164535 59 350 6.0 18.0 0.00 0.01 0.01 42 1007.3
20260509164017 58 12 9.0 18.0 0.00 0.01 0.01 45 1007.2
20260509163517 58 342 7.0 15.0 0.00 0.01 0.01 41 1007.3
20260509163042 58 236 4.0 14.0 0.00 0.01 0.01 44 1007.2
20260509162517 58 319 6.0 20.0 0.00 0.01 0.01 42 1007.1
20260509162018 58 9 8.0 20.0 0.00 0.01 0.01 42 1007.1
20260509161533 59 314 11.0 20.0 0.00 0.01 0.01 41 1006.9
20260509161019 59 350 5.0 22.0 0.00 0.01 0.01 43 1006.9
20260509160517 58 3 8.0 22.0 0.00 0.01 0.01 48 1006.9
20260509160034 58 292 6.0 16.0 0.00 0.01 0.01 44 1006.8
20260509155516 59 355 5.0 16.0 0.00 0.01 0.01 45 1006.8
20260509155020 58 10 7.0 21.0 0.00 0.01 0.01 46 1006.8
20260509154542 58 302 7.0 21.0 0.00 0.01 0.01 46 1006.6
20260509154020 58 284 6.0 19.0 0.00 0.01 0.01 49 1006.5
20260509153516 58 22 8.0 15.0 0.00 0.01 0.01 48 1006.5
20260509153034 58 271 4.0 21.0 0.00 0.01 0.01 51 1006.4
20260509152516 57 0 6.0 21.0 0.00 0.01 0.01 53 1006.4
20260509152021 57 329 6.0 21.0 0.00 0.01 0.01 52 1006.4
20260509151534 56 10 7.0 19.0 0.00 0.01 0.01 52 1006.3
20260509151016 56 341 6.0 19.0 0.01 0.01 0.01 57 1006.5
20260509150517 56 9 5.0 15.0 0.01 0.01 0.01 58 1006.3
20260509150035 56 27 8.0 15.0 0.01 0.01 0.01 56 1006.2
20260509145517 56 339 3.0 13.0 0.01 0.01 0.01 63 1006.1
20260509145017 55 34 6.0 18.0 0.01 0.01 0.01 64 1006.1
20260509144535 55 336 6.0 18.0 0.01 0.01 0.01 61 1006.0
20260509144016 54 355 6.0 18.0 0.01 0.01 0.01 63 1006.1
20260509143518 54 22 5.0 14.0 0.01 0.01 0.01 65 1005.9
20260509143045 54 15 3.0 14.0 0.01 0.01 0.01 66 1005.8
20260509142516 53 330 6.0 13.0 0.01 0.01 0.01 67 1005.8
20260509142016 53 338 5.0 16.0 0.01 0.01 0.01 68 1005.7
20260509141540 54 359 6.0 16.0 0.01 0.01 0.01 67 1005.5
20260509141017 54 359 6.0 16.0 0.00 0.00 0.00 65 1005.5
20260509140516 54 342 7.0 16.0 0.00 0.00 0.00 65 1005.5
20260509140040 54 3 6.0 16.0 0.00 0.00 0.00 66 1005.3
20260509135516 54 341 5.0 18.0 0.00 0.00 0.00 65 1005.3
20260509135016 54 350 4.0 18.0 0.00 0.00 0.00 69 1005.2
20260509134533 54 334 5.0 18.0 0.00 0.00 0.00 69 1005.1
20260509134020 53 340 4.0 12.0 0.00 0.00 0.00 73 1005.2
20260509133516 53 319 5.0 12.0 0.00 0.00 0.00 74 1005.1
20260509133035 52 3 3.0 12.0 0.00 0.00 0.00 74 1005.0
20260509132517 52 54 4.0 14.0 0.00 0.00 0.00 73 1005.0
20260509132017 52 342 6.0 14.0 0.00 0.00 0.00 74 1004.9
20260509131537 52 43 4.0 12.0 0.00 0.00 0.00 75 1004.8
20260509131023 51 350 4.0 13.0 0.00 0.00 0.00 77 1004.7
20260509130516 51 335 3.0 15.0 0.00 0.00 0.00 77 1004.6
20260509130041 51 328 5.0 15.0 0.00 0.00 0.00 75 1004.7
20260509125518 51 337 2.0 16.0 0.00 0.00 0.00 77 1004.6
20260509125016 51 310 5.0 16.0 0.00 0.00 0.00 78 1004.5
20260509124540 51 1 3.0 13.0 0.00 0.00 0.00 79 1004.4
20260509124019 51 8 5.0 13.0 0.00 0.00 0.00 79 1004.4
20260509123516 51 334 4.0 13.0 0.00 0.00 0.00 80 1004.4
20260509123045 51 0 3.0 12.0 0.00 0.00 0.00 80 1004.3
20260509122515 50 267 4.0 12.0 0.00 0.00 0.00 80 1004.3
20260509122019 50 307 3.0 12.0 0.00 0.00 0.00 80 1004.0
20260509121532 50 301 1.0 5.0 0.00 0.00 0.00 80 1004.0
20260509121019 50 0 0.0 4.0 0.00 0.00 0.00 80 1003.8
20260509120516 49 315 0.0 4.0 0.00 0.00 0.00 79 1003.7
20260509120034 49 314 2.0 4.0 0.00 0.00 0.00 79 1003.7
20260509115515 49 316 2.0 4.0 0.00 0.00 0.00 79 1003.5
20260509115022 49 350 0.0 5.0 0.00 0.00 0.00 78 1003.5
20260509114538 49 350 0.0 5.0 0.00 0.00 0.00 78 1003.4
20260509114016 49 0 1.0 5.0 0.00 0.00 0.00 78 1003.4
20260509113517 49 0 0.0 0.0 0.00 0.00 0.00 79 1003.3
20260509113043 49 0 0.0 0.0 0.00 0.00 0.00 77 1003.1
20260509112516 50 0 0.0 0.0 0.00 0.00 0.00 77 1003.1
20260509112017 50 0 0.0 0.0 0.00 0.00 0.00 76 1003.1
20260509111545 50 0 0.0 0.0 0.00 0.00 0.00 73 1002.9
20260509111017 50 0 0.0 0.0 0.00 0.00 0.00 73 1003.0
20260509110518 50 0 0.0 0.0 0.00 0.00 0.00 72 1002.8
20260509110032 51 0 0.0 0.0 0.00 0.00 0.00 69 1002.6
20260509105516 51 0 0.0 3.0 0.00 0.00 0.00 69 1002.5
20260509105016 51 0 0.0 3.0 0.00 0.00 0.00 68 1002.5
20260509104534 51 0 0.0 4.0 0.00 0.00 0.00 65 1002.7
20260509104018 52 0 1.0 5.0 0.00 0.00 0.00 63 1002.5
20260509103519 52 0 0.0 6.0 0.00 0.00 0.00 61 1002.4
20260509103042 51 308 1.0 6.0 0.00 0.00 0.00 58 1002.7
20260509102516 51 326 2.0 6.0 0.00 0.00 0.00 58 1002.2
20260509102017 51 324 0.0 3.0 0.00 0.00 0.00 58 1002.0
20260509101535 51 0 0.0 0.0 0.00 0.00 0.00 57 1001.9
20260509101019 51 0 0.0 0.0 0.00 0.00 0.00 58 1002.1
20260509100516 51 0 0.0 0.0 0.00 0.00 0.00 55 1002.2
20260509100045 51 0 0.0 3.0 0.00 0.00 0.00 55 1002.3
20260509095516 50 0 0.0 3.0 0.00 0.00 0.00 55 1002.5
20260509095015 50 0 0.0 4.0 0.00 0.00 0.00 55 1002.5
20260509094536 50 323 0.0 4.0 0.00 0.00 0.00 56 1002.5
20260509094019 50 0 0.0 4.0 0.00 0.00 0.00 57 1002.5
20260509093519 49 0 0.0 4.0 0.00 0.00 0.00 58 1002.5